Weather History for EGPK - May, 2013

Change the Weather History Date:

Sunday, May 12, 2013

  Actual Average Record
Temperature  
Mean Temperature 48 °F -  
Max Temperature 53 °F 58 °F 71 °F (2000)
Min Temperature 42 °F 45 °F 35 °F (2002)
Degree Days  
Heating Degree Days 18    
Moisture  
Dew Point 44 °F    
Average Humidity 85    
Maximum Humidity 94    
Minimum Humidity 76    
Precipitation  
Precipitation 0.00 in - - ()
Sea Level Pressure  
Sea Level Pressure 29.73 in    
Wind  
Wind Speed 12 mph ()    
Max Wind Speed 20 mph    
Max Gust Speed -    
Visibility 5.9 miles    
Events Rain    
Averages and records for this station are not official NWS values.
T = Trace of Precipitation, MM = Missing Value Source: Averaged Metar Reports

Daily Weather History Graph

Daily Weather History Graph

Search for Another Location

Airport or City:

Trip Planner

Search our weather history database for the weather conditions in past years. The results will help you decide how hot, cold, wet, or windy it might be!

Date:

Astronomy

May. 12, 2013 Rise Set
Actual Time 5:13 AM BST 9:17 PM BST
Civil Twilight 4:25 AM BST 10:05 PM BST
Nautical Twilight 3:15 AM BST 11:16 PM BST
Astronomical Twilight 1:47 AM BST 12:42 AM BST
Moon 6:50 AM BST (5/12) 11:39 PM BST (5/12)
Length of Visible Light 17h 39m
Length of Day
16h 03m
Waxing Crescent, 5% of the Moon is Illuminated
May 12
Waxing Crescent
May 18
First Quarter
May 25
Full
May 31
Last Quarter
Jun 8
New

Hourly Weather History & Observations

Time (BST) Temp. Windchill Dew Point Humidity Pressure Visibility Wind Dir Wind Speed Gust Speed Precip Events Conditions
12:20 AM 48.2 °F - 42.8 °F 82% 29.80 in 6.2 mi WNW 16.1 mph - N/A   Scattered Clouds
12:50 AM 46.4 °F 41.9 °F 42.8 °F 87% 29.80 in 6.2 mi West 9.2 mph - N/A   Scattered Clouds
1:50 AM 46.4 °F 42.4 °F 42.8 °F 87% 29.83 in 6.2 mi West 8.1 mph - N/A   Scattered Clouds
2:50 AM 46.4 °F 40.1 °F 42.8 °F 87% 29.83 in 6.2 mi West 15.0 mph - N/A   Scattered Clouds
3:50 AM 46.4 °F 40.4 °F 42.8 °F 87% 29.83 in 6.2 mi West 13.8 mph - N/A   Scattered Clouds
4:50 AM 46.4 °F 40.4 °F 41.0 °F 81% 29.83 in 6.2 mi West 13.8 mph - N/A   Scattered Clouds
5:50 AM 46.4 °F 41.9 °F 42.8 °F 87% 29.83 in 6.2 mi WSW 9.2 mph - N/A   Scattered Clouds
6:20 AM 46.4 °F 41.1 °F 42.8 °F 87% 29.83 in 6.2 mi WSW 11.5 mph - N/A   Scattered Clouds
6:50 AM 46.4 °F 40.7 °F 42.8 °F 87% 29.83 in 6.2 mi SW 12.7 mph - N/A   Scattered Clouds
7:20 AM 46.4 °F 41.1 °F 42.8 °F 87% 29.83 in 6.2 mi SW 11.5 mph - N/A   Scattered Clouds
7:50 AM 48.2 °F - 42.8 °F 82% 29.80 in 6.2 mi SW 10.4 mph - N/A   Scattered Clouds
8:20 AM 48.2 °F - 42.8 °F 82% 29.80 in 6.2 mi SW 12.7 mph - N/A   Scattered Clouds
8:50 AM 48.2 °F - 42.8 °F 82% 29.80 in 6.2 mi SSW 9.2 mph - N/A   Mostly Cloudy
9:20 AM 48.2 °F - 41.0 °F 76% 29.80 in 6.2 mi SSW 11.5 mph - N/A   Mostly Cloudy
9:50 AM 48.2 °F - 42.8 °F 82% 29.80 in 5.6 mi SSW 9.2 mph - N/A Rain Light Rain
10:20 AM 48.2 °F - 42.8 °F 82% 29.80 in 5.6 mi SSW 9.2 mph - N/A Rain Light Rain
10:50 AM 48.2 °F - 42.8 °F 82% 29.77 in 5.6 mi South 11.5 mph - N/A Rain Light Rain
11:20 AM 50.0 °F - 44.6 °F 82% 29.77 in 5.0 mi South 10.4 mph - N/A Rain Light Rain
11:50 AM 50.0 °F - 44.6 °F 82% 29.74 in 4.3 mi South 15.0 mph - N/A Rain Light Rain
12:20 PM 50.0 °F - 46.4 °F 87% 29.71 in 5.6 mi South 16.1 mph - N/A Rain Light Rain
12:50 PM 51.8 °F - 46.4 °F 82% 29.71 in 5.6 mi South 16.1 mph - N/A Rain Light Rain Showers
1:20 PM 51.8 °F - 48.2 °F 88% 29.68 in 5.6 mi South 17.3 mph - N/A Rain Light Rain Showers
1:50 PM 51.8 °F - 48.2 °F 88% 29.68 in 5.6 mi South 17.3 mph - N/A Rain Light Rain
2:20 PM 51.8 °F - 48.2 °F 88% 29.68 in 6.2 mi South 13.8 mph - N/A Rain Light Rain
2:50 PM 53.6 °F - 50.0 °F 88% 29.65 in 4.3 mi SSW 13.8 mph - N/A Rain Light Rain
3:20 PM 51.8 °F - 50.0 °F 94% 29.65 in 5.6 mi SW 18.4 mph - N/A Rain Light Rain
3:50 PM 51.8 °F - 48.2 °F 88% 29.65 in 5.6 mi SW 17.3 mph - N/A Rain Light Rain
4:20 PM 51.8 °F - 48.2 °F 88% 29.65 in 6.2 mi SW 15.0 mph - N/A Rain Light Rain Showers
4:50 PM 51.8 °F - 48.2 °F 88% 29.65 in 6.2 mi WSW 15.0 mph - N/A   Mostly Cloudy
5:20 PM 51.8 °F - 48.2 °F 88% 29.65 in 6.2 mi WSW 15.0 mph - N/A   Mostly Cloudy
5:50 PM 51.8 °F - 48.2 °F 88% 29.65 in 6.2 mi SW 13.8 mph - N/A Rain Light Rain Showers
6:20 PM 51.8 °F - 46.4 °F 82% 29.65 in 6.2 mi SW 15.0 mph - N/A   Scattered Clouds
6:50 PM 50.0 °F - 46.4 °F 87% 29.65 in 6.2 mi SW 15.0 mph - N/A   Scattered Clouds
7:20 PM 48.2 °F - 46.4 °F 93% 29.65 in 4.3 mi WSW 16.1 mph - N/A Rain Light Rain Showers
7:50 PM 48.2 °F - 44.6 °F 87% 29.65 in 6.2 mi WSW 16.1 mph - N/A Rain Light Rain Showers
8:20 PM 46.4 °F 39.0 °F 44.6 °F 93% 29.65 in 6.2 mi West 19.6 mph - N/A   Mostly Cloudy
8:50 PM 46.4 °F 39.8 °F 42.8 °F 87% 29.68 in 6.2 mi WSW 16.1 mph - N/A   Mostly Cloudy
9:20 PM 46.4 °F 39.8 °F 42.8 °F 87% 29.68 in 6.2 mi WSW 16.1 mph - N/A   Mostly Cloudy
9:50 PM 46.4 °F 40.1 °F 42.8 °F 87% 29.68 in 6.2 mi WSW 15.0 mph - N/A   Mostly Cloudy
10:20 PM 44.6 °F 37.2 °F 39.2 °F 81% 29.68 in 6.2 mi West 17.3 mph - N/A   Scattered Clouds
10:50 PM 42.8 °F 35.1 °F 37.4 °F 81% 29.68 in 6.2 mi West 16.1 mph - N/A   Scattered Clouds
11:20 PM 44.6 °F 38.1 °F 39.2 °F 81% 29.68 in 6.2 mi West 13.8 mph - N/A   Scattered Clouds
11:50 PM 44.6 °F 37.4 °F 39.2 °F 81% 29.68 in 6.2 mi WSW 16.1 mph - N/A Rain Light Rain